{"data":{"norad_id":64896,"intl_designator":"2025-154H","name":"SKYCRAFT-4C","alt_names":[],"object_type":"PAYLOAD","status":"ACTIVE","operator":null,"country":"AUS","launch_date":"2025-07-23","launch_site_code":"AFWTR","launch_vehicle":null,"mission":null,"orbit_class":"UNKNOWN","rcs_meters":null,"size_class":null,"mass_kg":null,"dimensions":null,"purposes":[],"wikipedia_slug":null,"has_3d_model":false,"image_url":null,"decayed_at":null,"tle_current":{"epoch":"2026-09-21T18:25:52.053312Z","epoch_age_seconds":61674,"freshness":"FRESH","line1":"1 64896U 25154H   26264.76796358  .00001138  00000+0  10756-3 0  9995","line2":"2 64896  97.6594 326.7824 0004091 304.9572  55.1265 14.95626593213584","mean_motion":14.95626593,"eccentricity":0.0004091,"inclination_deg":97.6594,"raan_deg":326.7824,"arg_perigee_deg":304.9572,"mean_anomaly_deg":55.1265,"bstar":0.00010756,"rev_number":21358,"period_min":96.280716506356,"perigee_km":577.58179502895,"apogee_km":583.27529335721,"semimajor_km":6958.5655441931,"source":"CELESTRAK","updated_at":"2026-09-22T09:00:30.019310Z"}}}